[[{"header":{"parameterUnit":"m.s-1","parameterCategory":1,"la1":30.2991,"la2":30.254,"lo1":-89.0895,"lo2":-89.0444,"dy":0.0017,"dx":0.0017,"nx":28,"ny":28,"refTime":"2024-04-14T09:00:00:Z","depth":0,"parameterNumber":2,"parameterNumberName":"U-component_of_WINDS"},"data":[0,0,0,0,0,0,0,0,0,0,0,0,0,0,0,0,0,0,0,0,0,0,0,0,0,0,0,0,0,0,0,0,0,0,0,0,0,0,0,0,0,0,0,0,0,0,0,0,0,0,0,0,0,0,0,0,0,0,-0.3906,-0.3905,0,-0.3854,-0.3853,-0.3852,-0.3839,-0.3839,-0.384,-0.384,-0.3787,-0.3785,-0.3784,0,0,0,0,0,0,0,0,0,0,0,0,0,-0.3994,-0.3993,-0.3906,-0.3905,-0.3904,-0.3854,-0.3853,-0.3852,-0.3839,-0.3839,-0.384,-0.384,-0.3788,-0.3786,-0.3784,0,0,0,0,0,0,0,0,0,0,0,0,0,-0.395,-0.3992,-0.3906,-0.3892,-0.389,-0.3854,-0.3853,-0.3852,-0.3839,-0.3839,-0.384,-0.384,-0.3788,-0.3786,-0.3783,-0.3758,0,0,-0.3775,-0.3774,0,0,0,0,0,0,0,0,-0.3953,-0.3947,-0.3894,-0.3893,-0.389,-0.3853,-0.3865,-0.3821,-0.3839,-0.3858,-0.384,-0.384,-0.3809,-0.3805,-0.3794,-0.3755,-0.3753,-0.3775,-0.3774,-0.3773,-0.3772,0,0,0,0,0,0,0,-0.3956,-0.3949,-0.3885,-0.3894,-0.3891,-0.3888,-0.3882,-0.3856,-0.3831,-0.3857,-0.3855,-0.3849,-0.3808,-0.3796,-0.3792,-0.3752,-0.3775,-0.3773,-0.3771,-0.377,-0.3691,-0.369,0,0,0,0,0,0,-0.3961,-0.3952,-0.3887,-0.3884,-0.3923,-0.3886,-0.388,-0.3865,-0.3832,-0.3827,-0.3849,-0.3849,-0.38,-0.3795,-0.379,-0.3758,-0.3773,-0.377,-0.3769,-0.3692,-0.3691,-0.369,0,0,0,0,0,0,-0.3963,-0.3956,-0.3889,-0.3917,-0.3909,-0.3884,-0.3867,-0.3863,-0.3852,-0.3826,-0.3822,-0.3842,-0.3801,-0.3794,-0.3766,-0.3756,-0.3769,-0.3767,-0.3692,-0.3691,-0.3691,-0.3695,0,0,0,0,0,0,-0.3966,-0.3956,-0.3946,-0.3917,-0.3907,-0.3865,-0.3867,-0.3862,-0.3847,-0.3847,-0.3818,-0.3814,-0.38,-0.377,-0.3764,-0.3753,-0.3765,-0.3693,-0.3692,-0.3691,-0.3695,-0.3694,-0.3693,0,0,0,0,0,-0.3969,-0.395,-0.3946,-0.3938,-0.3894,-0.3865,-0.3859,-0.3844,-0.3847,-0.3836,-0.382,-0.3815,-0.3759,-0.3767,-0.376,-0.3749,-0.3694,-0.3692,-0.3691,-0.3696,-0.3694,-0.3693,0,0,0,0,0,0,-0.3978,-0.3946,-0.3941,-0.3912,-0.3891,-0.3862,-0.3849,-0.3843,-0.3821,-0.3821,-0.3804,-0.3797,-0.3771,-0.3757,-0.3767,-0.3723,-0.3726,-0.3723,-0.3732,-0.3731,-0.373,-0.3733,-0.3763,0,0,0,0,0,-0.3977,-0.3956,-0.3928,-0.3905,-0.3895,-0.3874,-0.386,-0.3851,-0.3829,-0.382,-0.3801,-0.378,-0.3758,-0.3744,-0.3722,-0.3693,-0.3687,-0.3682,-0.3681,-0.368,-0.3678,-0.3662,-0.3659,-0.3686,-0.3686,-0.3686,0,0,-0.3974,-0.3953,-0.3941,-0.3906,-0.3889,-0.3868,-0.3866,-0.3844,-0.3828,-0.3816,-0.3789,-0.3775,-0.375,-0.3722,-0.3708,-0.3709,-0.3669,-0.3678,-0.3678,-0.3676,-0.366,-0.3658,-0.3655,-0.3685,-0.3685,-0.3685,0,0,-0.3957,-0.3939,-0.3918,-0.3901,-0.3875,-0.3861,-0.3856,-0.3828,-0.3818,-0.379,-0.3782,-0.3762,-0.3724,-0.3707,-0.3694,-0.3671,-0.3665,-0.3664,-0.3658,-0.3643,-0.3641,-0.3639,-0.363,-0.3628,-0.3662,-0.3662,-0.3662,0,-0.3956,-0.3923,-0.3908,-0.3885,-0.387,-0.3859,-0.3837,-0.3822,-0.379,-0.378,-0.3782,-0.3734,-0.3717,-0.3685,-0.3679,-0.3668,-0.3662,-0.3667,-0.3642,-0.364,-0.3638,-0.363,-0.3627,-0.3662,-0.3662,-0.3662,-0.3662,0,-0.3923,-0.3901,-0.3887,-0.3856,-0.384,-0.3818,-0.3799,-0.3785,-0.3776,-0.3763,-0.3734,-0.3713,-0.3687,-0.3679,-0.3671,-0.3645,-0.3647,-0.3646,-0.3649,-0.3636,-0.3628,-0.3625,-0.3662,-0.3662,-0.3662,-0.3662,0,0,-0.391,-0.3872,-0.3867,-0.3853,-0.3824,-0.3806,-0.3784,-0.3758,-0.3746,-0.3725,-0.3705,-0.3674,-0.3673,-0.3657,-0.3647,-0.3634,-0.3617,-0.3634,-0.3633,-0.3631,-0.3588,-0.3588,-0.3585,-0.3613,-0.3613,-0.3612,-0.359,0,-0.3889,-0.3849,-0.3834,-0.3801,-0.378,-0.377,-0.375,-0.3731,-0.3717,-0.3698,-0.3683,-0.3661,-0.3661,-0.3652,-0.3638,-0.3622,-0.3608,-0.3623,-0.3595,-0.3595,-0.3601,-0.3581,-0.3581,-0.3561,-0.3586,-0.3586,-0.3586,0,-0.3859,-0.3838,-0.3802,-0.3776,-0.3766,-0.3749,-0.3725,-0.3706,-0.3683,-0.3675,-0.3658,-0.3649,-0.3625,-0.3631,-0.3598,-0.3609,-0.3597,-0.3588,-0.3587,-0.3583,-0.3589,-0.3576,-0.3554,-0.3551,-0.3581,-0.3581,-0.3581,0,-0.3853,-0.3815,-0.3789,-0.3777,-0.3746,-0.3734,-0.3721,-0.3699,-0.3684,-0.3663,-0.3653,-0.3629,-0.3616,-0.3598,-0.3583,-0.3589,-0.3552,-0.3556,-0.3545,-0.3545,-0.3537,-0.3538,-0.3512,-0.353,-0.353,-0.353,-0.353,0,-0.3831,-0.3809,-0.3785,-0.3769,-0.3745,-0.3729,-0.3706,-0.3692,-0.3672,-0.3654,-0.3644,-0.3626,-0.3608,-0.3588,-0.3576,-0.3551,-0.3546,-0.3538,-0.3535,-0.3539,-0.3539,-0.353,-0.3531,-0.3529,-0.3529,-0.353,-0.353,0,-0.3819,-0.3802,-0.3773,-0.3746,-0.3739,-0.3722,-0.3699,-0.3683,-0.367,-0.3646,-0.3639,-0.3618,-0.3595,-0.3578,-0.3548,-0.354,-0.3513,-0.351,-0.352,-0.3519,-0.3508,-0.3509,-0.3475,-0.347,-0.3492,-0.3491,-0.3491,0,-0.3806,-0.3789,-0.376,-0.3747,-0.3733,-0.3712,-0.3697,-0.3681,-0.3666,-0.3639,-0.3627,-0.3603,-0.3582,-0.3545,-0.3527,-0.3504,-0.35,-0.349,-0.3497,-0.3501,-0.35,-0.3501,-0.3499,-0.3489,-0.3489,-0.3489,-0.3489,0,-0.3784,-0.3777,-0.3755,-0.3731,-0.3714,-0.3694,-0.3674,-0.3664,-0.3645,-0.3628,-0.3604,-0.3588,-0.3557,-0.3533,-0.3508,-0.3495,-0.3489,-0.3487,-0.3483,-0.3486,-0.3492,-0.3489,-0.3517,-0.3487,-0.3488,-0.3488,-0.3488,-0.3488,-0.3771,-0.3756,-0.3733,-0.371,-0.3694,-0.3675,-0.3659,-0.3644,-0.3623,-0.3596,-0.3588,-0.3563,-0.3541,-0.3507,-0.3494,-0.3474,-0.3474,-0.3469,-0.3467,-0.3466,-0.3466,-0.3496,-0.3469,-0.3469,-0.3469,-0.3469,-0.3469,0,-0.3749,-0.3734,-0.3713,-0.3685,-0.3667,-0.3663,-0.3641,-0.3626,-0.3604,-0.3584,-0.3564,-0.3536,-0.3513,-0.3494,-0.347,-0.3458,-0.3454,-0.3452,-0.3452,-0.3449,-0.3467,-0.3472,-0.3455,-0.3455,-0.3455,-0.3455,-0.3455,-0.3455,-0.3735,-0.3709,-0.3699,-0.3665,-0.365,-0.3625,-0.3612,-0.3596,-0.358,-0.3549,-0.353,-0.3517,-0.3498,-0.3472,-0.3451,-0.3446,-0.3438,-0.3436,-0.343,-0.3447,-0.3448,-0.345,-0.3455,-0.3434,-0.3434,-0.3414,-0.3414,-0.3414]},{"header":{"parameterUnit":"m.s-1","parameterCategory":1,"la1":30.2991,"la2":30.254,"lo1":-89.0895,"lo2":-89.0444,"dy":0.0017,"dx":0.0017,"nx":28,"ny":28,"refTime":"2024-04-14T09:00:00:Z","depth":0,"parameterNumber":3,"parameterNumberName":"V-component_of_WINDS"},"data":[0,0,0,0,0,0,0,0,0,0,0,0,0,0,0,0,0,0,0,0,0,0,0,0,0,0,0,0,0,0,0,0,0,0,0,0,0,0,0,0,0,0,0,0,0,0,0,0,0,0,0,0,0,0,0,0,0,0,0.0363,0.0363,0,0.04,0.04,0.0401,0.0374,0.0373,0.0372,0.037,0.0411,0.0413,0.0415,0,0,0,0,0,0,0,0,0,0,0,0,0,0.027,0.0272,0.0363,0.0363,0.0364,0.04,0.04,0.0401,0.0374,0.0373,0.0371,0.037,0.041,0.0413,0.0416,0,0,0,0,0,0,0,0,0,0,0,0,0,0.0309,0.0273,0.0363,0.0355,0.0354,0.04,0.04,0.0401,0.0375,0.0373,0.0371,0.0369,0.0409,0.0413,0.0416,0.0472,0,0,0.0426,0.0427,0,0,0,0,0,0,0,0,0.0307,0.0313,0.0355,0.0355,0.0355,0.038,0.0383,0.0425,0.0375,0.0367,0.037,0.0368,0.0402,0.0406,0.0417,0.0474,0.0476,0.0426,0.0428,0.043,0.0431,0,0,0,0,0,0,0,0.0305,0.0311,0.0377,0.0356,0.0356,0.035,0.0353,0.0391,0.0394,0.0367,0.0366,0.037,0.0402,0.0414,0.0418,0.0476,0.0426,0.0429,0.0431,0.0432,0.0581,0.0583,0,0,0,0,0,0,0.0302,0.0309,0.0376,0.0379,0.0326,0.0353,0.0357,0.0374,0.0394,0.0395,0.0372,0.0369,0.0409,0.0414,0.0419,0.0487,0.043,0.0433,0.0435,0.0579,0.0582,0.0584,0,0,0,0,0,0,0.03,0.0309,0.0375,0.0343,0.0351,0.0356,0.0376,0.0376,0.0388,0.0397,0.0398,0.0383,0.0408,0.0415,0.0459,0.0488,0.0434,0.0437,0.0577,0.058,0.0583,0.0622,0,0,0,0,0,0,0.0298,0.0308,0.0329,0.0344,0.0353,0.0414,0.0378,0.0378,0.0393,0.039,0.0408,0.0409,0.0407,0.0454,0.0462,0.0491,0.044,0.0574,0.0578,0.0582,0.0618,0.0626,0.0632,0,0,0,0,0,0.0295,0.0339,0.033,0.0339,0.0379,0.0415,0.042,0.0416,0.0396,0.0417,0.0423,0.0409,0.0483,0.0459,0.0468,0.0498,0.0572,0.0577,0.0581,0.0615,0.0624,0.0632,0,0,0,0,0,0,0.0329,0.0341,0.0331,0.0382,0.0397,0.0411,0.0438,0.0426,0.0449,0.0445,0.044,0.0444,0.0491,0.0499,0.0472,0.0554,0.0525,0.0531,0.0547,0.0556,0.0563,0.0561,0.0443,0,0,0,0,0,0.0342,0.0369,0.0379,0.0422,0.0431,0.0433,0.0448,0.0444,0.046,0.0467,0.0476,0.0493,0.052,0.0538,0.0564,0.0618,0.0622,0.0644,0.0651,0.0657,0.0663,0.0693,0.0702,0.0598,0.0598,0.0598,0,0,0.037,0.038,0.0398,0.0429,0.0441,0.047,0.0439,0.0471,0.0493,0.0472,0.0514,0.0522,0.054,0.059,0.0613,0.0598,0.0692,0.0662,0.0667,0.067,0.0698,0.0708,0.0717,0.0601,0.0601,0.06,0,0,0.0436,0.0446,0.0483,0.0495,0.0513,0.0514,0.0523,0.0537,0.0541,0.0583,0.0568,0.0594,0.0641,0.0655,0.0668,0.0739,0.0727,0.0747,0.0785,0.0814,0.0823,0.083,0.0856,0.0865,0.0753,0.0753,0.0753,0,0.0468,0.0511,0.0504,0.0537,0.0552,0.0533,0.0572,0.0584,0.061,0.062,0.0604,0.0662,0.0673,0.0726,0.0743,0.0754,0.0765,0.0746,0.0822,0.0829,0.0836,0.086,0.087,0.0755,0.0755,0.0755,0.0755,0,0.0551,0.0581,0.0609,0.0633,0.0651,0.0687,0.0686,0.0704,0.0698,0.0701,0.0744,0.0757,0.0784,0.0796,0.0791,0.0849,0.0839,0.0822,0.0793,0.0848,0.0871,0.0881,0.0759,0.0758,0.0757,0.0757,0,0,0.0641,0.066,0.067,0.0681,0.0699,0.0722,0.0757,0.0783,0.0799,0.0817,0.0847,0.0886,0.0871,0.0886,0.0881,0.0907,0.0962,0.0887,0.0887,0.0901,0.1028,0.1041,0.1052,0.0954,0.0955,0.0957,0.1026,0,0.0708,0.0768,0.0763,0.082,0.0848,0.083,0.086,0.0875,0.0878,0.0903,0.0906,0.0935,0.0911,0.092,0.0945,0.095,0.0988,0.0945,0.0982,0.0984,0.0979,0.1064,0.1078,0.1143,0.1035,0.1037,0.1038,0,0.0795,0.0815,0.0875,0.0888,0.09,0.0927,0.0951,0.0974,0.099,0.0991,0.1007,0.0998,0.1034,0.1003,0.1052,0.1023,0.1038,0.1043,0.1045,0.1049,0.1015,0.1072,0.1164,0.1174,0.1052,0.105,0.1049,0,0.0856,0.0898,0.0939,0.0949,0.0965,0.0985,0.0992,0.1006,0.1023,0.1043,0.1054,0.1078,0.1092,0.1112,0.111,0.1087,0.116,0.1129,0.1162,0.1163,0.118,0.1179,0.1277,0.1187,0.1187,0.1187,0.1187,0,0.0933,0.097,0.0967,0.0992,0.1034,0.1027,0.1068,0.1074,0.1086,0.1113,0.1099,0.1125,0.112,0.1145,0.1144,0.1185,0.1192,0.1194,0.1193,0.1196,0.1196,0.1206,0.1202,0.119,0.1189,0.1188,0.1188,0,0.1008,0.1007,0.1051,0.1062,0.1066,0.1096,0.1106,0.113,0.1132,0.1166,0.1174,0.1177,0.1206,0.1205,0.1239,0.1238,0.1289,0.1283,0.1284,0.1283,0.1317,0.1314,0.1426,0.144,0.134,0.1341,0.1342,0,0.1058,0.1086,0.11,0.1117,0.1125,0.1152,0.1168,0.1162,0.1179,0.1199,0.1222,0.1249,0.1271,0.1319,0.1325,0.135,0.1345,0.1382,0.1349,0.1351,0.1347,0.1345,0.1349,0.139,0.1391,0.1392,0.1392,0,0.1146,0.1144,0.1167,0.119,0.121,0.1228,0.1244,0.1259,0.1254,0.1275,0.1304,0.1321,0.1355,0.1383,0.1407,0.1416,0.1404,0.1402,0.1412,0.1415,0.1415,0.1416,0.1303,0.14,0.14,0.1399,0.1399,0.1398,0.1211,0.1236,0.1249,0.1275,0.1287,0.1302,0.1326,0.133,0.1354,0.1381,0.1375,0.1409,0.1423,0.1455,0.1465,0.1491,0.1478,0.1492,0.1495,0.1499,0.1503,0.141,0.1496,0.1496,0.1495,0.1495,0.1495,0,0.13,0.1307,0.1331,0.1354,0.1375,0.1361,0.1378,0.1397,0.1426,0.144,0.1462,0.1495,0.1522,0.1529,0.1555,0.1575,0.157,0.1582,0.1581,0.1583,0.1513,0.1503,0.1585,0.1585,0.1585,0.1585,0.1585,0.1585,0.1348,0.1389,0.1388,0.1434,0.1442,0.1473,0.1485,0.1499,0.1511,0.1549,0.1571,0.1575,0.1586,0.1613,0.1637,0.1638,0.1649,0.1663,0.1663,0.1597,0.1588,0.158,0.157,0.1665,0.1665,0.1731,0.1731,0.1732]}]]